Location: Julian California
(33.0790°N, 116.6010°W)
Time: 01:57:59
(UTC-07:00)

Aureole 3 Rocket - Pass Details

Date: 19 May 2017
Orbit: 398 x 1745 km, 82.5° (Epoch: 28 June)

Event Time Altitude Azimuth Distance (km) Brightness Sun altitude
Exits shadow 21:23:56 13° 175° (S) 3,173 6.2 -18.8°
Maximum altitude 21:31:10 69° 95° (E) 1,168 4.2 -19.9°
Drops below altitude 10° 21:36:57 10° 13° (NNE) 2,515 6.5 -20.8°
Sets 21:39:01 0° 11° (N) 3,287 7.2 -21.1°
